• Em Portugal
  • Lista de países
  • Para 7 dias
  • Temperatura da água
  • Mapas de satélite
  • Mapa do tempo
  • Widgets de tempo
  • user-avatar
    Iniciar Sessão

    Previsão horária em Varna

    Hoje, 25 Setembro, Terça-feira

    Tempo Temperatura Precipitação Vento Pressão Humidade
    00:00 +13°C° 0.5 mm 9 m/s 748 mmHg 70%
    01:00 +12°C° 0.5 mm 8 m/s 749 mmHg 74%
    02:00 +11°C° 0.5 mm 8 m/s 750 mmHg 78%
    03:00 +11°C° 0.6 mm 7 m/s 750 mmHg 77%
    04:00 +11°C° 0.6 mm 6 m/s 751 mmHg 76%
    05:00 +10°C° 0.6 mm 6 m/s 751 mmHg 75%
    06:00 +12°C° 0.2 mm 5 m/s 752 mmHg 73%
    07:00 +12°C° 0.2 mm 5 m/s 752 mmHg 71%
    08:00 +12°C° 0.2 mm 5 m/s 752 mmHg 70%
    09:00 +13°C° 0 mm 5 m/s 753 mmHg 62%
    10:00 +14°C° 0 mm 5 m/s 753 mmHg 55%
    11:00 +15°C° 0 mm 5 m/s 753 mmHg 48%
    12:00 +15°C° 0 mm 5 m/s 753 mmHg 45%
    13:00 +15°C° 0 mm 6 m/s 753 mmHg 43%
    14:00 +15°C° 0 mm 6 m/s 753 mmHg 41%
    15:00 +15°C° 0 mm 6 m/s 753 mmHg 40%
    16:00 +15°C° 0 mm 5 m/s 754 mmHg 40%
    17:00 +15°C° 0 mm 5 m/s 754 mmHg 40%
    18:00 +14°C° 0 mm 5 m/s 754 mmHg 41%
    19:00 +13°C° 0 mm 4 m/s 755 mmHg 42%
    20:00 +12°C° 0 mm 4 m/s 755 mmHg 44%
    21:00 +12°C° 0 mm 5 m/s 756 mmHg 44%
    22:00 +10°C° 0 mm 5 m/s 756 mmHg 45%
    23:00 +10°C° 0 mm 6 m/s 757 mmHg 45%

    Amanhã, 26 Setembro, Quarta-feira

    Tempo Temperatura Precipitação Vento Pressão Humidade
    00:00 +9°C° 0 mm 6 m/s 757 mmHg 47%
    01:00 +9°C° 0 mm 7 m/s 757 mmHg 48%
    02:00 +8°C° 0 mm 7 m/s 757 mmHg 49%
    03:00 +8°C° 0 mm 7 m/s 757 mmHg 52%
    04:00 +6°C° 0 mm 7 m/s 757 mmHg 56%
    05:00 +6°C° 0 mm 7 m/s 758 mmHg 59%
    06:00 +6°C° 0 mm 8 m/s 758 mmHg 57%
    07:00 +7°C° 0 mm 8 m/s 758 mmHg 55%
    08:00 +8°C° 0 mm 9 m/s 758 mmHg 53%
    09:00 +10°C° 0 mm 9 m/s 759 mmHg 48%
    10:00 +12°C° 0 mm 9 m/s 759 mmHg 43%
    11:00 +13°C° 0 mm 9 m/s 759 mmHg 38%
    12:00 +13°C° 0 mm 9 m/s 759 mmHg 37%
    13:00 +15°C° 0 mm 9 m/s 758 mmHg 35%
    14:00 +15°C° 0 mm 9 m/s 758 mmHg 34%
    15:00 +15°C° 0 mm 9 m/s 758 mmHg 34%
    16:00 +13°C° 0 mm 8 m/s 758 mmHg 34%
    17:00 +13°C° 0 mm 8 m/s 758 mmHg 34%
    18:00 +12°C° 0 mm 8 m/s 758 mmHg 37%
    19:00 +11°C° 0 mm 8 m/s 758 mmHg 39%
    20:00 +10°C° 0 mm 8 m/s 758 mmHg 42%
    21:00 +9°C° 0 mm 8 m/s 758 mmHg 43%
    22:00 +9°C° 0 mm 8 m/s 759 mmHg 43%
    23:00 +8°C° 0 mm 7 m/s 759 mmHg 44%

    Depois de amanhã, 27 Setembro, Quinta-feira

    Tempo Temperatura Precipitação Vento Pressão Humidade
    00:00 +8°C° 0 mm 7 m/s 758 mmHg 45%
    01:00 +6°C° 0 mm 7 m/s 758 mmHg 46%
    02:00 +6°C° 0 mm 7 m/s 758 mmHg 47%
    03:00 +5°C° 0 mm 7 m/s 758 mmHg 48%
    04:00 +5°C° 0 mm 7 m/s 758 mmHg 49%
    05:00 +4°C° 0 mm 7 m/s 757 mmHg 50%
    06:00 +5°C° 0 mm 7 m/s 757 mmHg 48%
    07:00 +6°C° 0 mm 7 m/s 757 mmHg 46%
    08:00 +7°C° 0 mm 8 m/s 757 mmHg 43%
    09:00 +10°C° 0 mm 8 m/s 757 mmHg 42%
    10:00 +12°C° 0 mm 7 m/s 757 mmHg 40%
    11:00 +15°C° 0 mm 7 m/s 757 mmHg 38%
    12:00 +15°C° 0 mm 7 m/s 757 mmHg 37%
    13:00 +16°C° 0 mm 7 m/s 756 mmHg 37%
    14:00 +17°C° 0 mm 7 m/s 756 mmHg 36%
    15:00 +16°C° 0 mm 7 m/s 755 mmHg 37%
    16:00 +16°C° 0 mm 7 m/s 755 mmHg 38%
    17:00 +16°C° 0 mm 6 m/s 754 mmHg 39%
    18:00 +14°C° 0 mm 6 m/s 755 mmHg 44%
    19:00 +13°C° 0 mm 5 m/s 755 mmHg 50%
    20:00 +10°C° 0 mm 5 m/s 755 mmHg 55%
    21:00 +10°C° 0 mm 5 m/s 754 mmHg 57%
    22:00 +10°C° 0 mm 5 m/s 754 mmHg 60%
    23:00 +9°C° 0 mm 5 m/s 754 mmHg 62%

    28 Setembro, Sexta-feira

    Tempo Temperatura Precipitação Vento Pressão Humidade
    00:00 +9°C° 0 mm 5 m/s 754 mmHg 62%
    01:00 +9°C° 0 mm 5 m/s 753 mmHg 61%
    02:00 +9°C° 0 mm 5 m/s 753 mmHg 61%
    03:00 +8°C° 0 mm 5 m/s 753 mmHg 59%
    04:00 +8°C° 0 mm 5 m/s 752 mmHg 58%
    05:00 +8°C° 0 mm 5 m/s 752 mmHg 57%
    06:00 +9°C° 0 mm 5 m/s 752 mmHg 52%
    07:00 +10°C° 0 mm 5 m/s 752 mmHg 48%
    08:00 +13°C° 0 mm 5 m/s 752 mmHg 43%
    09:00 +15°C° 0 mm 5 m/s 752 mmHg 42%
    10:00 +17°C° 0 mm 5 m/s 752 mmHg 41%
    11:00 +20°C° 0 mm 5 m/s 752 mmHg 41%
    12:00 +20°C° 0 mm 5 m/s 751 mmHg 40%
    13:00 +21°C° 0 mm 5 m/s 751 mmHg 39%
    14:00 +21°C° 0 mm 4 m/s 750 mmHg 38%
    15:00 +21°C° 0 mm 4 m/s 750 mmHg 41%
    16:00 +20°C° 0 mm 4 m/s 749 mmHg 44%
    17:00 +19°C° 0 mm 4 m/s 749 mmHg 48%
    18:00 +18°C° 0 mm 3 m/s 749 mmHg 54%
    19:00 +17°C° 0 mm 3 m/s 749 mmHg 60%
    20:00 +14°C° 0 mm 3 m/s 749 mmHg 67%
    21:00 +14°C° 0 mm 3 m/s 749 mmHg 69%
    22:00 +14°C° 0 mm 2 m/s 748 mmHg 70%
    23:00 +14°C° 0 mm 2 m/s 748 mmHg 72%

    29 Setembro, Sábado

    Tempo Temperatura Precipitação Vento Pressão Humidade
    00:00 +14°C° 0 mm 2 m/s 748 mmHg 73%
    01:00 +14°C° 0 mm 2 m/s 748 mmHg 74%
    02:00 +14°C° 0 mm 2 m/s 747 mmHg 74%
    03:00 +13°C° 0 mm 2 m/s 747 mmHg 74%
    04:00 +13°C° 0 mm 2 m/s 747 mmHg 74%
    05:00 +13°C° 0 mm 1 m/s 747 mmHg 75%
    06:00 +14°C° 0 mm 2 m/s 747 mmHg 71%
    07:00 +15°C° 0 mm 2 m/s 747 mmHg 67%
    08:00 +16°C° 0 mm 2 m/s 747 mmHg 64%
    09:00 +18°C° 0 mm 2 m/s 747 mmHg 59%
    10:00 +19°C° 0 mm 2 m/s 747 mmHg 53%
    11:00 +21°C° 0 mm 2 m/s 747 mmHg 48%
    12:00 +21°C° 0 mm 2 m/s 747 mmHg 46%
    13:00 +23°C° 0 mm 2 m/s 747 mmHg 45%
    14:00 +23°C° 0 mm 2 m/s 747 mmHg 43%
    15:00 +23°C° 0 mm 2 m/s 747 mmHg 44%
    16:00 +21°C° 0 mm 2 m/s 747 mmHg 46%
    17:00 +21°C° 0 mm 2 m/s 747 mmHg 47%
    18:00 +20°C° 0 mm 2 m/s 747 mmHg 53%
    19:00 +19°C° 0 mm 2 m/s 747 mmHg 59%
    20:00 +17°C° 0 mm 2 m/s 748 mmHg 65%
    21:00 +17°C° 0 mm 2 m/s 748 mmHg 68%
    22:00 +16°C° 0 mm 2 m/s 748 mmHg 71%
    23:00 +16°C° 0 mm 2 m/s 748 mmHg 74%

    30 Setembro, Domingo

    Tempo Temperatura Precipitação Vento Pressão Humidade
    00:00 +14°C° 0 mm 3 m/s 749 mmHg 75%
    01:00 +14°C° 0 mm 4 m/s 749 mmHg 77%
    02:00 +13°C° 0 mm 5 m/s 749 mmHg 78%
    03:00 +13°C° 0 mm 5 m/s 749 mmHg 82%
    04:00 +12°C° 0 mm 5 m/s 749 mmHg 86%
    05:00 +11°C° 0 mm 6 m/s 749 mmHg 90%
    06:00 +13°C° 0 mm 6 m/s 750 mmHg 87%
    07:00 +13°C° 0 mm 6 m/s 750 mmHg 84%
    08:00 +14°C° 0 mm 6 m/s 750 mmHg 81%
    09:00 +16°C° 0 mm 6 m/s 750 mmHg 75%
    10:00 +17°C° 0 mm 7 m/s 750 mmHg 68%
    11:00 +20°C° 0 mm 7 m/s 751 mmHg 61%
    12:00 +20°C° 0.1 mm 7 m/s 750 mmHg 58%
    13:00 +21°C° 0.1 mm 7 m/s 750 mmHg 54%
    14:00 +22°C° 0.1 mm 7 m/s 750 mmHg 51%
    15:00 +21°C° 0 mm 7 m/s 750 mmHg 51%
    16:00 +21°C° 0 mm 6 m/s 750 mmHg 52%
    17:00 +20°C° 0 mm 6 m/s 750 mmHg 53%
    18:00 +19°C° 0 mm 6 m/s 750 mmHg 59%
    19:00 +16°C° 0 mm 5 m/s 750 mmHg 65%
    20:00 +15°C° 0 mm 5 m/s 751 mmHg 71%
    21:00 +14°C° 0 mm 4 m/s 751 mmHg 73%
    22:00 +14°C° 0 mm 4 m/s 751 mmHg 76%
    23:00 +14°C° 0 mm 4 m/s 750 mmHg 78%
    Mostrar mais